Location: *
(34.0486°S, 61.7880°E)
Time: 13:18:04
(UTC+00:00)

ATLAS 5 CENTAUR R/B - Pass Details

Date: 01 April 2020
Orbit: 543 x 1116 km, 63.4° (Epoch: 01 May)

Event Time Altitude Azimuth Distance (km) Brightness Sun altitude
Rises 15:20:30 0° 225° (SW) 3,185 6.1 -20.1°
Reaches altitude 10° 15:23:29 10° 240° (WSW) 2,150 5.3 -20.7°
Maximum altitude 15:27:07 22° 289° (WNW) 1,411 4.1 -21.4°
Drops below altitude 10° 15:30:26 10° 339° (NNW) 1,925 4.2 -22.1°
Sets 15:32:56 0° 355° (N) 2,760 4.8 -22.6°
